Aérodrome :
LOGIN :

S'inscrire | Disclaimer

   EN    FR    IT 

 










Légende :    VFR   VFR Marginal   IFR   IFR Intensif   IFR Très Intensif
Visi : 
Plafond : 
>= 8 km
>= 3000ft
5 à 8 km
1000 à 3000 ft
1500m à 5 km
500 à 1000 ft
800 à 1500m
200 à 500 ft
< 800m
< 200 ft
Symboles :   Orages  Brouillard  Fortes neiges  Fortes précipitations  Vent > 20 kt
SIGMETs :   Divers  Orages  Givrage  Turbulence  Onde Orograph.  Cendres Volcan.







- Altitude de l'aérodrome : 5600 ft
- Code IATA : SMV


LSZS - Samedan

DERNIER METAR :
  • 271320Z 04005KT 350V070 CAVOK 21/00 Q1024 RMK P

METARs EXPIRÉS :
  • 271250Z 04005KT 340V100 CAVOK 21/01 Q1024 RMK O
  • 271220Z VRB04KT CAVOK 20/M03 Q1024 RMK N
  • 271150Z VRB03KT CAVOK 20/M02 Q1024 RMK M
  • 271120Z 04006KT 340V090 CAVOK 20/02 Q1024 RMK L
  • 271050Z 04007KT CAVOK 20/01 Q1024 RMK K

TAF TAF LSZS
Valide du 27 à 12h jusqu'au 27 à 21h UTC


271125Z 2712/2721 04007KT CAVOK TX22/2714Z
PROB40
TEMPO 2712/2718 9999 FEW045
ATIS : +41 81 834 93 24
Pas de NOTAMs connus pour ce terrain.



MET'MAP, la Météo Aéronautique d'un coup d'oeil ! - Copyright ORBIFLY Décembre 2007 - Disclaimer

ORBIFLY MET'MAP TEAM :

Programmation & Développement : Alexandra Zaïnal
Conception & Développement : Baudouin d'Aumeries
Co-Programmation & Développement : Marc-Olivier Méhu
Soutien technique & logistique : Manuel Goepfert

Contact : metmap@orbifly.com




SOURCES & CREDITS :

   NOAA